Flag for U.S.A. Weather past 2 weeks in Greensboro, North Carolina, U.S.A.

Now
92 °F

Scattered clouds.


Feels Like: 93 °F
Forecast: 70 / 89 °F
Wind: 3 mph from East

Location: Piedmont Triad International Airport

Current Time: Sep 4, 2015 at 3:21:53 PM

Latest Report: Sep 4, 2015 at 2:54 PM


Visibility: 10 mi

Pressure: 29.96 "Hg

Humidity: 38%

Dew point: 63 °F

Location of GreensboroLocation

Historic Weather in Greensboro — Graph

°F

Greensboro temperature yesterday

Maximum temperature yesterday: 87 °F (at 11:54 AM)
Minimum temperature yesterday: 69 °F (at 6:54 AM)
Average temperature yesterday: 79 °F

Past Weeks' High & Low Weather Summary

 TemperatureHumidityPressure
High92 °F (Sep 2, 2:54 PM)100% (Aug 31, 8:54 AM)30.23 "Hg (Aug 31, 8:54 AM)
Low62 °F (Aug 28, 6:54 AM)36% (Sep 1, 4:54 PM)29.84 "Hg (Aug 24, 7:54 PM)
Average76 °F65%30.02 "Hg
* Reported Aug 20 1:54 PM — Sep 4 1:54 PM, Greensboro, Weather by CustomWeather, © 2015

Note: Actual official high and low records may vary slightly from our data, if they occured in-between our weather recording intervals... More about our weather records

Advertising

Greensboro weather history for previous 24 hours

 ConditionsComfort  
Time TempWeatherWind HumidityBarometerVisibility
1:54 PM
Fri, Sep 4
91 °FScattered clouds.5 mph44%29.97 "Hg9 mi
12:54 PM88 °FPassing clouds.6 mph50%29.99 "Hg9 mi
11:54 AM86 °FSunny.8 mph53%30.00 "Hg9 mi
10:54 AM85 °FSunny.7 mph57%30.00 "Hg8 mi
9:54 AM81 °FPassing clouds.9 mph62%29.99 "Hg8 mi
8:54 AM78 °FSunny.6 mph69%29.98 "Hg8 mi
7:54 AM74 °FPassing clouds.3 mph79%29.97 "Hg7 mi
6:54 AM73 °FPassing clouds.5 mph79%29.95 "Hg8 mi
5:54 AM73 °FPassing clouds.6 mph79%29.93 "Hg8 mi
4:54 AM72 °FPassing clouds.5 mph84%29.93 "Hg7 mi
3:54 AM72 °FPassing clouds.No wind84%29.91 "Hg7 mi
2:54 AM73 °FPassing clouds.3 mph81%29.91 "Hg8 mi
1:54 AM73 °FPassing clouds.No wind81%29.92 "Hg8 mi
12:54 AM75 °FPassing clouds.No wind74%29.91 "Hg9 mi
11:54 PM
Thu, Sep 3
76 °FPassing clouds.5 mph72%29.91 "Hg9 mi
10:54 PM78 °FPassing clouds.3 mph62%29.91 "Hg10 mi
9:54 PM79 °FPartly cloudy.No wind60%29.91 "Hg10 mi
8:54 PM80 °FPassing clouds.3 mph62%29.91 "Hg10 mi
7:54 PM83 °FPartly sunny.No wind53%29.89 "Hg10 mi
6:54 PM86 °FPartly sunny.No wind45%29.88 "Hg10 mi
5:54 PM87 °FPartly sunny.No wind42%29.87 "Hg10 mi
4:54 PM85 °FBroken clouds.No wind50%29.89 "Hg10 mi
3:54 PM84 °FMostly cloudy.3 mph53%29.91 "Hg10 mi
Weather by CustomWeather, © 2015

See weather overviewHow to use our weather pages